{"data":{"norad_id":66284,"intl_designator":"2025-247V","name":"STARLINK-35830","alt_names":[],"object_type":"PAYLOAD","status":"ACTIVE","operator":null,"country":"US","launch_date":"2025-10-31","launch_site_code":"AFWTR","launch_vehicle":null,"mission":null,"orbit_class":"UNKNOWN","rcs_meters":null,"size_class":null,"mass_kg":null,"dimensions":null,"purposes":["comms"],"wikipedia_slug":null,"has_3d_model":false,"image_url":null,"decayed_at":null,"tle_current":{"epoch":"2026-05-24T15:47:27.795840Z","epoch_age_seconds":108609,"freshness":"FRESH","line1":"1 66284U 25247V   26144.65796060  .00011375  00000+0  39552-3 0  9995","line2":"2 66284  53.1588 198.6556 0001356  58.5662 301.5471 15.30205412 32666","mean_motion":15.30205412,"eccentricity":0.0001356,"inclination_deg":53.1588,"raan_deg":198.6556,"arg_perigee_deg":58.5662,"mean_anomaly_deg":301.5471,"bstar":0.00039552,"rev_number":3266,"period_min":94.105012876533,"perigee_km":474.26959786105,"apogee_km":476.12822255989,"semimajor_km":6853.3359102105,"source":"CELESTRAK","updated_at":"2026-05-25T13:38:21.164166Z"}}}